GW0755 Weather Reports


time (UTC)temp
C
wind
direction
speed
KPH
gust
KPH
rain 1hr
cm
rain 24hr
cm
rain mn
cm
humidity
%
barometer
mb
20260503003053 27 60 6.4 19.3 0.00 0.00 0.00 89 1010.8
20260503001608 27 101 1.6 12.9 0.00 0.00 0.00 89 1011.2
20260503000113 27 101 8.0 14.5 0.00 0.00 0.00 89 1011.1
20260502234554 27 77 6.4 19.3 0.00 0.00 0.00 88 1010.8
20260502233048 28 110 12.9 20.9 0.00 0.00 0.00 87 1009.9
20260502231615 28 70 4.8 20.9 0.00 0.00 0.00 85 1009.5
20260502230051 28 101 11.3 30.6 0.00 0.00 0.00 83 1009.9
20260502224558 29 113 12.9 29.0 0.00 0.00 0.00 82 1009.8
20260502223056 30 110 11.3 35.4 0.00 0.00 0.00 81 1009.4
20260502221556 30 96 12.9 27.4 0.00 0.00 0.00 80 1009.1
20260502220051 30 96 14.5 25.7 0.00 0.00 0.00 79 1009.5
20260502214555 29 85 8.0 16.1 0.00 0.00 0.00 81 1010.2
20260502213052 29 126 9.7 19.3 0.00 0.00 0.00 80 1010.5
20260502211559 29 131 9.7 20.9 0.00 0.00 0.00 80 1010.6
20260502210054 30 88 4.8 20.9 0.00 0.00 0.00 78 1010.3
20260502204554 30 108 8.0 22.5 0.00 0.00 0.00 78 1010.4
20260502203052 30 87 11.3 27.4 0.00 0.00 0.00 78 1010.3
20260502201550 30 118 6.4 20.9 0.00 0.00 0.00 76 1010.3
20260502200050 30 94 9.7 24.1 0.00 0.00 0.00 77 1010.5
20260502194552 30 98 11.3 24.1 0.00 0.00 0.00 76 1010.6
20260502193104 30 181 11.3 24.1 0.00 0.00 0.00 76 1010.6
20260502191559 30 139 11.3 22.5 0.00 0.00 0.00 76 1010.7
20260502190050 31 94 6.4 20.9 0.00 0.00 0.00 74 1011.0
20260502184559 31 188 9.7 27.4 0.00 0.00 0.00 74 1011.0
20260502183048 31 120 11.3 27.4 0.00 0.00 0.00 76 1011.2
20260502181551 30 96 14.5 25.7 0.00 0.00 0.00 74 1011.6
20260502163052 30 95 12.9 30.6 0.00 0.00 0.00 77 1012.2
20260502161619 30 70 17.7 35.4 0.00 0.00 0.00 78 1012.2
20260502160118 30 86 12.9 33.8 0.00 0.00 0.00 78 1012.4
20260502151555 30 52 16.1 32.2 0.00 0.00 0.00 79 1012.3
20260502130110 28 81 12.9 24.1 0.00 0.00 0.00 83 1011.1
20260502123123 27 109 9.7 22.5 0.00 0.00 0.00 85 1011.0
20260502121553 27 104 9.7 19.3 0.00 0.00 0.00 87 1011.0
20260502120119 27 91 9.7 22.5 0.00 0.00 0.00 87 1010.8
20260502114558 26 110 6.4 24.1 0.00 0.00 0.00 88 1010.5
20260502113056 26 116 8.0 22.5 0.00 0.00 0.00 89 1010.4
20260502111555 26 89 3.2 12.9 0.00 0.00 0.00 89 1010.3
20260502110051 26 105 3.2 17.7 0.00 0.00 0.00 89 1010.1
20260502104549 26 167 4.8 12.9 0.00 0.00 0.00 90 1009.9
20260502103055 26 103 8.0 19.3 0.00 0.00 0.00 90 1009.4
20260502101555 26 45 3.2 22.5 0.00 0.00 0.00 89 1009.5
20260502070051 26 62 12.9 24.1 0.00 0.00 0.00 89 1009.9
20260502064555 26 89 6.4 17.7 0.00 0.00 0.00 89 1010.0
20260502063057 26 111 9.7 22.5 0.00 0.00 0.00 89 1010.0
20260502061551 26 38 6.4 14.5 0.00 0.00 0.00 89 1010.1
20260502060055 26 15 4.8 14.5 0.00 0.00 0.00 89 1010.3
20260502054551 26 71 3.2 17.7 0.00 0.00 0.00 89 1010.6
20260502053054 26 55 8.0 19.3 0.00 0.00 0.00 89 1010.8
20260502051551 26 105 6.4 16.1 0.00 0.00 0.00 89 1011.1
20260502050050 26 44 8.0 17.7 0.00 0.00 0.00 89 1011.2
20260502044551 26 74 4.8 11.3 0.00 0.00 0.00 89 1011.3
20260502043107 26 0 4.8 14.5 0.00 0.00 0.00 87 1011.5
20260502041555 26 99 11.3 25.7 0.00 0.00 0.00 87 1011.5
20260502040106 26 105 6.4 12.9 0.00 0.00 0.00 88 1011.5
20260502034549 26 110 8.0 16.1 0.00 0.00 0.00 87 1011.5
20260502033056 27 130 4.8 16.1 0.00 0.00 0.00 87 1011.4
20260502031550 27 141 9.7 19.3 0.00 0.00 0.00 87 1011.2
20260502030051 26 96 6.4 16.1 0.00 0.00 0.00 87 1011.0
20260502024609 26 109 6.4 16.1 0.00 0.00 0.00 88 1010.9
20260502023049 26 91 4.8 16.1 0.00 0.00 0.00 88 1010.8
20260502021603 27 76 8.0 24.1 0.00 0.00 0.00 87 1010.6
20260502020046 26 114 4.8 14.5 0.00 0.00 0.00 87 1010.6
20260502014547 27 112 3.2 11.3 0.00 0.00 0.00 87 1010.2
20260502013110 27 129 8.0 16.1 0.00 0.00 0.00 87 1010.1
20260502011549 27 136 1.6 16.1 0.00 0.00 0.00 87 1010.0
20260502010100 27 96 6.4 17.7 0.00 0.00 0.00 87 1009.6
20260502004603 27 68 8.0 20.9 0.00 0.00 0.00 86 1009.4